| time (UTC) | temp C | wind direction | speed KPH | gust KPH | rain 1hr cm | rain 24hr cm | rain mn cm | humidity % | barometer mb |
| 20260508132316 | 14 | 182 | 0.0 | 1.6 | 0.00 | 0.00 | 0.00 | 56 | 1017.3 |
| 20260508131914 | 14 | 191 | 1.6 | 4.8 | 0.00 | 0.00 | 0.00 | 56 | 1017.4 |
| 20260508131516 | 14 | 135 | 1.6 | 3.2 | 0.00 | 0.00 | 0.00 | 56 | 1017.2 |
| 20260508125912 | 14 | 139 | 3.2 | 4.8 | 0.00 | 0.00 | 0.00 | 56 | 1017.1 |
| 20260508124705 | 14 | 83 | 0.0 | 6.4 | 0.00 | 0.00 | 0.00 | 56 | 1017.1 |
| 20260508123900 | 14 | 135 | 1.6 | 8.0 | 0.00 | 0.00 | 0.00 | 56 | 1017.0 |
| 20260508123459 | 13 | 135 | 1.6 | 4.8 | 0.00 | 0.00 | 0.00 | 56 | 1016.9 |
| 20260508123058 | 13 | 121 | 1.6 | 1.6 | 0.00 | 0.00 | 0.00 | 56 | 1016.9 |
| 20260508122657 | 13 | 184 | 1.6 | 3.2 | 0.00 | 0.00 | 0.00 | 56 | 1016.9 |
| 20260508122255 | 13 | 148 | 0.0 | 6.4 | 0.00 | 0.00 | 0.00 | 56 | 1017.0 |
| 20260508121853 | 13 | 182 | 0.0 | 1.6 | 0.00 | 0.00 | 0.00 | 56 | 1016.8 |
| 20260508121452 | 13 | 85 | 0.0 | 1.6 | 0.00 | 0.00 | 0.00 | 56 | 1016.8 |
| 20260508121051 | 13 | 180 | 0.0 | 3.2 | 0.00 | 0.00 | 0.00 | 56 | 1016.9 |
| 20260508120650 | 13 | 135 | 0.0 | 6.4 | 0.00 | 0.00 | 0.00 | 56 | 1016.8 |
| 20260508120249 | 13 | 135 | 3.2 | 4.8 | 0.00 | 0.00 | 0.00 | 56 | 1016.8 |
| 20260508115848 | 13 | 83 | 1.6 | 3.2 | 0.00 | 0.00 | 0.00 | 56 | 1016.7 |
| 20260508115446 | 13 | 78 | 0.0 | 1.6 | 0.00 | 0.00 | 0.00 | 56 | 1016.8 |
| 20260508114644 | 13 | 121 | 4.8 | 8.0 | 0.00 | 0.00 | 0.00 | 56 | 1016.8 |
| 20260508114242 | 13 | 121 | 4.8 | 4.8 | 0.00 | 0.00 | 0.00 | 57 | 1016.7 |
| 20260508113843 | 13 | 123 | 3.2 | 4.8 | 0.00 | 0.00 | 0.00 | 57 | 1016.7 |
| 20260508111836 | 12 | 123 | 6.4 | 6.4 | 0.00 | 0.00 | 0.00 | 57 | 1016.6 |
| 20260508111439 | 12 | 135 | 0.0 | 3.2 | 0.00 | 0.00 | 0.00 | 57 | 1016.6 |
| 20260508111036 | 12 | 135 | 0.0 | 1.6 | 0.00 | 0.00 | 0.00 | 57 | 1016.6 |
| 20260508110630 | 12 | 78 | 0.0 | 1.6 | 0.00 | 0.00 | 0.00 | 57 | 1016.7 |
| 20260508110231 | 12 | 81 | 0.0 | 1.6 | 0.00 | 0.00 | 0.00 | 58 | 1016.6 |
| 20260508105828 | 12 | 49 | 0.0 | 0.0 | 0.00 | 0.00 | 0.00 | 58 | 1016.6 |
| 20260508105432 | 12 | 342 | 0.0 | 0.0 | 0.00 | 0.00 | 0.00 | 58 | 1016.6 |
| 20260508105025 | 12 | 315 | 0.0 | 0.0 | 0.00 | 0.00 | 0.00 | 58 | 1016.6 |
| 20260508104625 | 11 | 303 | 0.0 | 0.0 | 0.00 | 0.00 | 0.00 | 58 | 1016.7 |
| 20260508104224 | 11 | 344 | 0.0 | 0.0 | 0.00 | 0.00 | 0.00 | 58 | 1016.5 |
| 20260508103822 | 11 | 310 | 0.0 | 0.0 | 0.00 | 0.00 | 0.00 | 58 | 1016.6 |
| 20260508103421 | 11 | 306 | 0.0 | 1.6 | 0.00 | 0.00 | 0.00 | 58 | 1016.6 |
| 20260508103021 | 11 | 306 | 0.0 | 0.0 | 0.00 | 0.00 | 0.00 | 58 | 1016.5 |
| 20260508102618 | 11 | 301 | 0.0 | 0.0 | 0.00 | 0.00 | 0.00 | 57 | 1016.6 |
| 20260508101816 | 11 | 229 | 0.0 | 0.0 | 0.00 | 0.00 | 0.00 | 57 | 1016.7 |
| 20260508101013 | 11 | 230 | 0.0 | 0.0 | 0.00 | 0.00 | 0.00 | 57 | 1016.7 |
| 20260508100612 | 11 | 227 | 0.0 | 0.0 | 0.00 | 0.00 | 0.00 | 57 | 1016.8 |
| 20260508095808 | 11 | 231 | 0.0 | 0.0 | 0.00 | 0.00 | 0.00 | 57 | 1016.8 |
| 20260508095407 | 11 | 306 | 0.0 | 0.0 | 0.00 | 0.00 | 0.00 | 57 | 1016.8 |
| 20260508095006 | 11 | 315 | 0.0 | 0.0 | 0.00 | 0.00 | 0.00 | 57 | 1016.6 |
| 20260508094605 | 11 | 306 | 0.0 | 0.0 | 0.00 | 0.00 | 0.00 | 57 | 1016.8 |
| 20260508094204 | 11 | 274 | 0.0 | 0.0 | 0.00 | 0.00 | 0.00 | 57 | 1016.7 |
| 20260508093802 | 11 | 279 | 0.0 | 0.0 | 0.00 | 0.00 | 0.00 | 57 | 1016.8 |
| 20260508093401 | 12 | 270 | 0.0 | 0.0 | 0.00 | 0.00 | 0.00 | 57 | 1016.8 |
| 20260508093001 | 12 | 229 | 0.0 | 0.0 | 0.00 | 0.00 | 0.00 | 57 | 1016.7 |
| 20260508092558 | 12 | 270 | 0.0 | 0.0 | 0.00 | 0.00 | 0.00 | 56 | 1016.8 |
| 20260508091756 | 12 | 270 | 0.0 | 0.0 | 0.00 | 0.00 | 0.00 | 56 | 1016.8 |
| 20260508091355 | 12 | 279 | 0.0 | 0.0 | 0.00 | 0.00 | 0.00 | 56 | 1016.7 |
| 20260508090953 | 12 | 279 | 0.0 | 0.0 | 0.00 | 0.00 | 0.00 | 56 | 1016.8 |
| 20260508090552 | 12 | 270 | 0.0 | 0.0 | 0.00 | 0.00 | 0.00 | 56 | 1016.9 |
| 20260508090152 | 12 | 229 | 0.0 | 0.0 | 0.00 | 0.00 | 0.00 | 56 | 1016.9 |
| 20260508085750 | 12 | 308 | 0.0 | 0.0 | 0.00 | 0.00 | 0.00 | 56 | 1016.9 |
| 20260508084546 | 12 | 270 | 0.0 | 0.0 | 0.00 | 0.00 | 0.00 | 56 | 1017.0 |
| 20260508084144 | 12 | 274 | 0.0 | 0.0 | 0.00 | 0.00 | 0.00 | 56 | 1017.0 |
| 20260508083743 | 12 | 337 | 0.0 | 0.0 | 0.00 | 0.00 | 0.00 | 56 | 1017.1 |
| 20260508083342 | 12 | 274 | 0.0 | 0.0 | 0.00 | 0.00 | 0.00 | 55 | 1017.2 |
| 20260508082941 | 12 | 283 | 0.0 | 1.6 | 0.00 | 0.00 | 0.00 | 55 | 1017.2 |
| 20260508082540 | 12 | 279 | 0.0 | 0.0 | 0.00 | 0.00 | 0.00 | 55 | 1017.3 |
| 20260508081736 | 12 | 342 | 0.0 | 1.6 | 0.00 | 0.00 | 0.00 | 55 | 1017.2 |
| 20260508080936 | 12 | 310 | 0.0 | 0.0 | 0.00 | 0.00 | 0.00 | 55 | 1017.3 |
| 20260508080134 | 13 | 292 | 0.0 | 0.0 | 0.00 | 0.00 | 0.00 | 55 | 1017.4 |
| 20260508075731 | 13 | 310 | 0.0 | 0.0 | 0.00 | 0.00 | 0.00 | 55 | 1017.5 |
| 20260508075329 | 13 | 337 | 0.0 | 0.0 | 0.00 | 0.00 | 0.00 | 55 | 1017.7 |
| 20260508074928 | 13 | 337 | 0.0 | 0.0 | 0.00 | 0.00 | 0.00 | 55 | 1017.5 |
| 20260508074527 | 13 | 182 | 0.0 | 0.0 | 0.00 | 0.00 | 0.00 | 55 | 1017.5 |
| 20260508074129 | 13 | 135 | 0.0 | 0.0 | 0.00 | 0.00 | 0.00 | 54 | 1017.5 |
| 20260508073724 | 13 | 135 | 1.6 | 1.6 | 0.00 | 0.00 | 0.00 | 54 | 1017.5 |
| 20260508073322 | 13 | 85 | 1.6 | 1.6 | 0.00 | 0.00 | 0.00 | 54 | 1017.5 |
| 20260508072921 | 13 | 45 | 0.0 | 0.0 | 0.00 | 0.00 | 0.00 | 54 | 1017.4 |
| 20260508072520 | 13 | 135 | 0.0 | 1.6 | 0.00 | 0.00 | 0.00 | 54 | 1017.5 |
| 20260508071718 | 13 | 227 | 0.0 | 3.2 | 0.00 | 0.00 | 0.00 | 54 | 1017.3 |
| 20260508071316 | 13 | 182 | 0.0 | 0.0 | 0.00 | 0.00 | 0.00 | 54 | 1017.3 |
| 20260508070914 | 13 | 182 | 0.0 | 3.2 | 0.00 | 0.00 | 0.00 | 54 | 1017.4 |
| 20260508070513 | 13 | 135 | 1.6 | 3.2 | 0.00 | 0.00 | 0.00 | 54 | 1017.4 |
| 20260508070113 | 13 | 162 | 1.6 | 3.2 | 0.00 | 0.00 | 0.00 | 54 | 1017.5 |
| 20260508065711 | 14 | 126 | 3.2 | 6.4 | 0.00 | 0.00 | 0.00 | 54 | 1017.3 |
| 20260508065310 | 14 | 135 | 3.2 | 6.4 | 0.00 | 0.00 | 0.00 | 54 | 1017.4 |
| 20260508064910 | 14 | 185 | 3.2 | 8.0 | 0.00 | 0.00 | 0.00 | 53 | 1017.3 |
| 20260508062902 | 14 | 135 | 3.2 | 4.8 | 0.00 | 0.00 | 0.00 | 53 | 1017.3 |
| 20260508062503 | 14 | 182 | 0.0 | 4.8 | 0.00 | 0.00 | 0.00 | 53 | 1017.3 |
| 20260508061658 | 14 | 231 | 1.6 | 4.8 | 0.00 | 0.00 | 0.00 | 52 | 1017.2 |
| 20260508061257 | 14 | 135 | 3.2 | 4.8 | 0.00 | 0.00 | 0.00 | 52 | 1017.1 |
| 20260508060856 | 14 | 135 | 4.8 | 4.8 | 0.00 | 0.00 | 0.00 | 52 | 1017.1 |
| 20260508060455 | 14 | 135 | 3.2 | 6.4 | 0.00 | 0.00 | 0.00 | 52 | 1017.1 |
| 20260508060053 | 14 | 135 | 4.8 | 9.7 | 0.00 | 0.00 | 0.00 | 52 | 1017.1 |
| 20260508055656 | 14 | 135 | 6.4 | 8.0 | 0.00 | 0.00 | 0.00 | 52 | 1017.0 |
| 20260508055251 | 14 | 135 | 4.8 | 9.7 | 0.00 | 0.00 | 0.00 | 52 | 1017.0 |
| 20260508054849 | 14 | 135 | 6.4 | 11.3 | 0.00 | 0.00 | 0.00 | 51 | 1017.0 |
| 20260508054449 | 14 | 135 | 6.4 | 8.0 | 0.00 | 0.00 | 0.00 | 51 | 1017.1 |
| 20260508053646 | 14 | 135 | 4.8 | 9.7 | 0.00 | 0.00 | 0.00 | 51 | 1017.1 |
| 20260508052843 | 15 | 126 | 8.0 | 9.7 | 0.00 | 0.00 | 0.00 | 51 | 1017.2 |
| 20260508052443 | 15 | 123 | 4.8 | 8.0 | 0.00 | 0.00 | 0.00 | 51 | 1017.1 |
| 20260508052040 | 15 | 123 | 4.8 | 9.7 | 0.00 | 0.00 | 0.00 | 50 | 1017.1 |
| 20260508051643 | 15 | 135 | 4.8 | 4.8 | 0.00 | 0.00 | 0.00 | 50 | 1017.1 |
| 20260508050435 | 15 | 135 | 3.2 | 4.8 | 0.00 | 0.00 | 0.00 | 50 | 1016.9 |
| 20260508045633 | 15 | 135 | 6.4 | 6.4 | 0.00 | 0.00 | 0.00 | 49 | 1017.0 |
| 20260508045231 | 16 | 135 | 3.2 | 4.8 | 0.00 | 0.00 | 0.00 | 49 | 1016.8 |
| 20260508044831 | 16 | 148 | 3.2 | 4.8 | 0.00 | 0.00 | 0.00 | 49 | 1016.8 |
| 20260508044429 | 16 | 135 | 0.0 | 4.8 | 0.00 | 0.00 | 0.00 | 49 | 1016.8 |
| 20260508043626 | 16 | 121 | 6.4 | 9.7 | 0.00 | 0.00 | 0.00 | 48 | 1016.6 |
| 20260508043225 | 16 | 135 | 6.4 | 9.7 | 0.00 | 0.00 | 0.00 | 48 | 1016.6 |
| 20260508042824 | 16 | 130 | 8.0 | 9.7 | 0.00 | 0.00 | 0.00 | 48 | 1016.6 |
| 20260508042422 | 16 | 123 | 6.4 | 9.7 | 0.00 | 0.00 | 0.00 | 48 | 1016.5 |
| 20260508041619 | 16 | 135 | 4.8 | 6.4 | 0.00 | 0.00 | 0.00 | 47 | 1016.4 |
| 20260508041219 | 16 | 110 | 4.8 | 8.0 | 0.00 | 0.00 | 0.00 | 47 | 1016.3 |
| 20260508040817 | 16 | 123 | 6.4 | 8.0 | 0.00 | 0.00 | 0.00 | 46 | 1016.3 |
| 20260508040416 | 16 | 87 | 4.8 | 6.4 | 0.00 | 0.00 | 0.00 | 46 | 1016.3 |
| 20260508035613 | 17 | 132 | 3.2 | 4.8 | 0.00 | 0.00 | 0.00 | 46 | 1016.1 |
| 20260508035212 | 17 | 128 | 4.8 | 8.0 | 0.00 | 0.00 | 0.00 | 45 | 1016.0 |
| 20260508034811 | 17 | 96 | 4.8 | 6.4 | 0.00 | 0.00 | 0.00 | 45 | 1016.0 |
| 20260508034409 | 17 | 135 | 4.8 | 6.4 | 0.00 | 0.00 | 0.00 | 45 | 1015.9 |
| 20260508034010 | 17 | 83 | 4.8 | 9.7 | 0.00 | 0.00 | 0.00 | 44 | 1015.9 |
| 20260508033205 | 17 | 126 | 8.0 | 9.7 | 0.00 | 0.00 | 0.00 | 43 | 1015.9 |
| 20260508032403 | 17 | 130 | 9.7 | 9.7 | 0.00 | 0.00 | 0.00 | 42 | 1015.7 |
| 20260508031202 | 18 | 130 | 4.8 | 9.7 | 0.00 | 0.00 | 0.00 | 41 | 1015.6 |
| 20260508030358 | 18 | 112 | 4.8 | 8.0 | 0.00 | 0.00 | 0.00 | 40 | 1015.4 |
| 20260508025955 | 19 | 112 | 6.4 | 8.0 | 0.00 | 0.00 | 0.00 | 39 | 1015.3 |
| 20260508025554 | 19 | 135 | 6.4 | 9.7 | 0.00 | 0.00 | 0.00 | 39 | 1015.4 |
| 20260508024752 | 19 | 112 | 6.4 | 8.0 | 0.00 | 0.00 | 0.00 | 38 | 1015.1 |
| 20260508024351 | 20 | 123 | 8.0 | 8.0 | 0.00 | 0.00 | 0.00 | 37 | 1015.1 |
| 20260508023146 | 20 | 135 | 6.4 | 8.0 | 0.00 | 0.00 | 0.00 | 36 | 1014.9 |
| 20260508022747 | 21 | 135 | 6.4 | 12.9 | 0.00 | 0.00 | 0.00 | 35 | 1014.8 |
| 20260508022343 | 21 | 130 | 6.4 | 8.0 | 0.00 | 0.00 | 0.00 | 35 | 1014.7 |
| 20260508020337 | 22 | 135 | 9.7 | 12.9 | 0.00 | 0.00 | 0.00 | 33 | 1014.5 |
| 20260508015936 | 22 | 123 | 8.0 | 9.7 | 0.00 | 0.00 | 0.00 | 33 | 1014.5 |
| 20260508015534 | 22 | 135 | 9.7 | 17.7 | 0.00 | 0.00 | 0.00 | 32 | 1014.5 |
| 20260508014732 | 23 | 135 | 6.4 | 12.9 | 0.00 | 0.00 | 0.00 | 32 | 1014.4 |
| 20260508013930 | 23 | 180 | 3.2 | 14.5 | 0.00 | 0.00 | 0.00 | 31 | 1014.5 |
| 20260508012725 | 23 | 135 | 12.9 | 22.5 | 0.00 | 0.00 | 0.00 | 30 | 1014.5 |
| 20260508012324 | 24 | 135 | 14.5 | 19.3 | 0.00 | 0.00 | 0.00 | 30 | 1014.5 |
| 20260508011522 | 24 | 135 | 14.5 | 14.5 | 0.00 | 0.00 | 0.00 | 29 | 1014.4 |
| 20260508010721 | 24 | 135 | 11.3 | 12.9 | 0.00 | 0.00 | 0.00 | 29 | 1014.5 |
| 20260508005916 | 24 | 135 | 14.5 | 14.5 | 0.00 | 0.00 | 0.00 | 28 | 1014.5 |
| 20260508005123 | 25 | 135 | 17.7 | 17.7 | 0.00 | 0.00 | 0.00 | 28 | 1014.5 |
| 20260508002709 | 26 | 139 | 8.0 | 14.5 | 0.00 | 0.00 | 0.00 | 28 | 1014.5 |
| 20260508002307 | 26 | 135 | 11.3 | 17.7 | 0.00 | 0.00 | 0.00 | 28 | 1014.4 |
| 20260508001904 | 27 | 130 | 12.9 | 12.9 | 0.00 | 0.00 | 0.00 | 28 | 1014.4 |
| 20260508001101 | 26 | 135 | 12.9 | 16.1 | 0.00 | 0.00 | 0.00 | 27 | 1014.5 |
| 20260508000700 | 26 | 135 | 9.7 | 16.1 | 0.00 | 0.00 | 0.00 | 27 | 1014.5 |
| 20260508000305 | 26 | 135 | 12.9 | 17.7 | 0.00 | 0.00 | 0.00 | 27 | 1014.4 |
| 20260507235456 | 26 | 123 | 11.3 | 20.9 | 0.00 | 0.00 | 0.00 | 27 | 1014.5 |
| 20260507235054 | 27 | 101 | 16.1 | 16.1 | 0.00 | 0.00 | 0.00 | 27 | 1014.4 |
| 20260507234653 | 27 | 135 | 8.0 | 14.5 | 0.00 | 0.00 | 0.00 | 27 | 1014.6 |
| 20260507234252 | 27 | 135 | 14.5 | 14.5 | 0.00 | 0.00 | 0.00 | 26 | 1014.5 |
| 20260507233851 | 27 | 87 | 11.3 | 14.5 | 0.00 | 0.00 | 0.00 | 26 | 1014.5 |
| 20260507233048 | 27 | 137 | 9.7 | 14.5 | 0.00 | 0.00 | 0.00 | 26 | 1014.6 |
| 20260507231449 | 28 | 135 | 8.0 | 14.5 | 0.00 | 0.00 | 0.00 | 26 | 1014.5 |
| 20260507231042 | 29 | 117 | 8.0 | 24.1 | 0.00 | 0.00 | 0.00 | 26 | 1014.6 |
| 20260507230640 | 30 | 135 | 22.5 | 24.1 | 0.00 | 0.00 | 0.00 | 26 | 1014.5 |
| 20260507225437 | 31 | 72 | 3.2 | 8.0 | 0.00 | 0.00 | 0.00 | 25 | 1014.6 |
| 20260507223837 | 31 | 162 | 8.0 | 11.3 | 0.00 | 0.00 | 0.00 | 25 | 1014.7 |
| 20260507223432 | 31 | 140 | 4.8 | 11.3 | 0.00 | 0.00 | 0.00 | 25 | 1014.7 |
| 20260507223029 | 31 | 182 | 3.2 | 9.7 | 0.00 | 0.00 | 0.00 | 25 | 1014.8 |
| 20260507222628 | 30 | 137 | 3.2 | 14.5 | 0.00 | 0.00 | 0.00 | 25 | 1014.7 |
| 20260507221825 | 30 | 171 | 4.8 | 14.5 | 0.00 | 0.00 | 0.00 | 25 | 1014.9 |
| 20260507221424 | 30 | 130 | 14.5 | 14.5 | 0.00 | 0.00 | 0.00 | 25 | 1014.8 |
| 20260507221022 | 30 | 144 | 9.7 | 16.1 | 0.00 | 0.00 | 0.00 | 25 | 1014.8 |
| 20260507220621 | 30 | 155 | 4.8 | 14.5 | 0.00 | 0.00 | 0.00 | 25 | 1014.9 |
| 20260507220220 | 30 | 146 | 12.9 | 14.5 | 0.00 | 0.00 | 0.00 | 25 | 1014.9 |
| 20260507215418 | 31 | 157 | 9.7 | 16.1 | 0.00 | 0.00 | 0.00 | 25 | 1015.1 |
| 20260507214618 | 31 | 174 | 4.8 | 11.3 | 0.00 | 0.00 | 0.00 | 25 | 1015.2 |
| 20260507214215 | 31 | 148 | 12.9 | 16.1 | 0.00 | 0.00 | 0.00 | 24 | 1015.1 |
| 20260507213812 | 32 | 180 | 9.7 | 11.3 | 0.00 | 0.00 | 0.00 | 24 | 1015.2 |
| 20260507213411 | 31 | 175 | 16.1 | 19.3 | 0.00 | 0.00 | 0.00 | 24 | 1015.3 |
| 20260507212608 | 31 | 162 | 6.4 | 32.2 | 0.00 | 0.00 | 0.00 | 24 | 1015.3 |
| 20260507212207 | 32 | 139 | 9.7 | 17.7 | 0.00 | 0.00 | 0.00 | 24 | 1015.4 |
| 20260507211806 | 32 | 183 | 14.5 | 17.7 | 0.00 | 0.00 | 0.00 | 24 | 1015.4 |
| 20260507211406 | 32 | 78 | 6.4 | 19.3 | 0.00 | 0.00 | 0.00 | 24 | 1015.4 |
| 20260507211014 | 32 | 180 | 14.5 | 20.9 | 0.00 | 0.00 | 0.00 | 24 | 1015.5 |
| 20260507210605 | 31 | 216 | 6.4 | 22.5 | 0.00 | 0.00 | 0.00 | 24 | 1015.5 |
| 20260507210200 | 31 | 167 | 8.0 | 25.7 | 0.00 | 0.00 | 0.00 | 25 | 1015.6 |
| 20260507204959 | 31 | 175 | 9.7 | 29.0 | 0.00 | 0.00 | 0.00 | 25 | 1015.7 |
| 20260507204556 | 31 | 195 | 11.3 | 29.0 | 0.00 | 0.00 | 0.00 | 25 | 1015.7 |
| 20260507204154 | 31 | 137 | 24.1 | 24.1 | 0.00 | 0.00 | 0.00 | 25 | 1015.8 |
| 20260507203352 | 32 | 195 | 14.5 | 19.3 | 0.00 | 0.00 | 0.00 | 25 | 1015.9 |
| 20260507202950 | 31 | 153 | 9.7 | 16.1 | 0.00 | 0.00 | 0.00 | 25 | 1015.9 |
| 20260507202551 | 31 | 162 | 3.2 | 19.3 | 0.00 | 0.00 | 0.00 | 25 | 1015.9 |
| 20260507201746 | 31 | 166 | 4.8 | 27.4 | 0.00 | 0.00 | 0.00 | 25 | 1015.9 |
| 20260507200543 | 31 | 177 | 12.9 | 12.9 | 0.00 | 0.00 | 0.00 | 25 | 1016.2 |
| 20260507195740 | 30 | 135 | 19.3 | 27.4 | 0.00 | 0.00 | 0.00 | 25 | 1016.2 |
| 20260507195341 | 30 | 170 | 6.4 | 14.5 | 0.00 | 0.00 | 0.00 | 25 | 1016.2 |
| 20260507194544 | 29 | 128 | 12.9 | 17.7 | 0.00 | 0.00 | 0.00 | 25 | 1016.3 |
| 20260507193734 | 29 | 81 | 9.7 | 24.1 | 0.00 | 0.00 | 0.00 | 25 | 1016.4 |
| 20260507193333 | 29 | 155 | 17.7 | 29.0 | 0.00 | 0.00 | 0.00 | 25 | 1016.4 |
| 20260507192931 | 29 | 121 | 6.4 | 25.7 | 0.00 | 0.00 | 0.00 | 26 | 1016.4 |
| 20260507192530 | 29 | 101 | 19.3 | 19.3 | 0.00 | 0.00 | 0.00 | 25 | 1016.5 |
| 20260507190125 | 29 | 187 | 4.8 | 32.2 | 0.00 | 0.00 | 0.00 | 25 | 1016.6 |
| 20260507185721 | 28 | 135 | 12.9 | 20.9 | 0.00 | 0.00 | 0.00 | 25 | 1016.6 |
| 20260507185324 | 28 | 117 | 6.4 | 20.9 | 0.00 | 0.00 | 0.00 | 25 | 1016.7 |
| 20260507184517 | 28 | 121 | 22.5 | 27.4 | 0.00 | 0.00 | 0.00 | 26 | 1016.7 |
| 20260507184115 | 28 | 83 | 1.6 | 24.1 | 0.00 | 0.00 | 0.00 | 26 | 1016.8 |
| 20260507183313 | 28 | 75 | 9.7 | 20.9 | 0.00 | 0.00 | 0.00 | 25 | 1016.8 |
| 20260507182912 | 27 | 135 | 19.3 | 19.3 | 0.00 | 0.00 | 0.00 | 25 | 1016.9 |
| 20260507182511 | 27 | 81 | 22.5 | 22.5 | 0.00 | 0.00 | 0.00 | 26 | 1016.8 |
| 20260507182111 | 29 | 70 | 12.9 | 16.1 | 0.00 | 0.00 | 0.00 | 26 | 1016.9 |
| 20260507175702 | 27 | 72 | 8.0 | 16.1 | 0.00 | 0.00 | 0.00 | 26 | 1016.9 |
| 20260507175301 | 27 | 67 | 14.5 | 20.9 | 0.00 | 0.00 | 0.00 | 26 | 1017.0 |
| 20260507173256 | 27 | 135 | 3.2 | 8.0 | 0.00 | 0.00 | 0.00 | 27 | 1017.0 |
| 20260507172852 | 27 | 135 | 3.2 | 19.3 | 0.00 | 0.00 | 0.00 | 28 | 1017.1 |
| 20260507172451 | 26 | 85 | 3.2 | 11.3 | 0.00 | 0.00 | 0.00 | 28 | 1017.2 |
| 20260507172053 | 26 | 63 | 3.2 | 17.7 | 0.00 | 0.00 | 0.00 | 29 | 1017.3 |
| 20260507171249 | 26 | 126 | 1.6 | 9.7 | 0.00 | 0.00 | 0.00 | 29 | 1017.2 |
| 20260507170847 | 25 | 132 | 9.7 | 12.9 | 0.00 | 0.00 | 0.00 | 30 | 1017.1 |
| 20260507165647 | 25 | 135 | 4.8 | 6.4 | 0.00 | 0.00 | 0.00 | 31 | 1017.2 |
| 20260507165241 | 24 | 119 | 4.8 | 11.3 | 0.00 | 0.00 | 0.00 | 31 | 1017.2 |
| 20260507164840 | 24 | 72 | 11.3 | 11.3 | 0.00 | 0.00 | 0.00 | 31 | 1017.2 |
| 20260507164439 | 24 | 135 | 9.7 | 12.9 | 0.00 | 0.00 | 0.00 | 32 | 1017.1 |
| 20260507164038 | 24 | 97 | 1.6 | 9.7 | 0.00 | 0.00 | 0.00 | 32 | 1017.3 |
| 20260507163635 | 24 | 50 | 6.4 | 6.4 | 0.00 | 0.00 | 0.00 | 33 | 1017.3 |
| 20260507163234 | 24 | 40 | 4.8 | 9.7 | 0.00 | 0.00 | 0.00 | 33 | 1017.3 |
| 20260507162833 | 24 | 123 | 6.4 | 9.7 | 0.00 | 0.00 | 0.00 | 34 | 1017.2 |
| 20260507162031 | 24 | 87 | 8.0 | 11.3 | 0.00 | 0.00 | 0.00 | 35 | 1017.2 |
| 20260507161629 | 24 | 130 | 9.7 | 11.3 | 0.00 | 0.00 | 0.00 | 36 | 1017.3 |
| 20260507161228 | 25 | 137 | 4.8 | 11.3 | 0.00 | 0.00 | 0.00 | 37 | 1017.2 |
| 20260507160827 | 25 | 166 | 1.6 | 11.3 | 0.00 | 0.00 | 0.00 | 37 | 1017.3 |
| 20260507160429 | 24 | 135 | 9.7 | 9.7 | 0.00 | 0.00 | 0.00 | 38 | 1017.3 |
| 20260507160025 | 24 | 51 | 1.6 | 6.4 | 0.00 | 0.00 | 0.00 | 39 | 1017.3 |
| 20260507155624 | 24 | 101 | 1.6 | 4.8 | 0.00 | 0.00 | 0.00 | 40 | 1017.3 |
| 20260507155221 | 23 | 105 | 3.2 | 6.4 | 0.00 | 0.00 | 0.00 | 40 | 1017.3 |
| 20260507154823 | 23 | 244 | 0.0 | 3.2 | 0.00 | 0.00 | 0.00 | 41 | 1017.4 |
| 20260507153617 | 22 | 83 | 1.6 | 3.2 | 0.00 | 0.00 | 0.00 | 44 | 1017.4 |
| 20260507153215 | 22 | 45 | 4.8 | 4.8 | 0.00 | 0.00 | 0.00 | 44 | 1017.6 |
| 20260507152813 | 22 | 337 | 1.6 | 4.8 | 0.00 | 0.00 | 0.00 | 45 | 1017.5 |
| 20260507152412 | 22 | 83 | 4.8 | 4.8 | 0.00 | 0.00 | 0.00 | 46 | 1017.4 |
| 20260507152011 | 22 | 85 | 0.0 | 3.2 | 0.00 | 0.00 | 0.00 | 47 | 1017.5 |
| 20260507151610 | 21 | 78 | 1.6 | 1.6 | 0.00 | 0.00 | 0.00 | 48 | 1017.5 |
| 20260507150811 | 21 | 135 | 0.0 | 1.6 | 0.00 | 0.00 | 0.00 | 50 | 1017.6 |
| 20260507150406 | 20 | 227 | 0.0 | 1.6 | 0.00 | 0.00 | 0.00 | 50 | 1017.6 |
| 20260507150006 | 20 | 36 | 0.0 | 1.6 | 0.00 | 0.00 | 0.00 | 51 | 1017.6 |
| 20260507145604 | 20 | 335 | 0.0 | 1.6 | 0.00 | 0.00 | 0.00 | 52 | 1017.5 |
| 20260507145202 | 19 | 330 | 0.0 | 0.0 | 0.00 | 0.00 | 0.00 | 52 | 1017.6 |
| 20260507144802 | 19 | 229 | 0.0 | 0.0 | 0.00 | 0.00 | 0.00 | 53 | 1017.6 |
| 20260507143958 | 18 | 180 | 0.0 | 0.0 | 0.00 | 0.00 | 0.00 | 53 | 1017.7 |
| 20260507143156 | 17 | 180 | 0.0 | 0.0 | 0.00 | 0.00 | 0.00 | 54 | 1017.6 |
| 20260507142755 | 17 | 180 | 0.0 | 0.0 | 0.00 | 0.00 | 0.00 | 55 | 1017.5 |
| 20260507142354 | 16 | 180 | 0.0 | 0.0 | 0.00 | 0.00 | 0.00 | 55 | 1017.5 |
| 20260507141550 | 15 | 45 | 0.0 | 0.0 | 0.00 | 0.00 | 0.00 | 56 | 1017.5 |
| 20260507141149 | 15 | 42 | 0.0 | 0.0 | 0.00 | 0.00 | 0.00 | 56 | 1017.4 |
| 20260507140748 | 14 | 45 | 0.0 | 0.0 | 0.00 | 0.00 | 0.00 | 56 | 1017.4 |
| 20260507135946 | 13 | 85 | 0.0 | 0.0 | 0.00 | 0.00 | 0.00 | 57 | 1017.4 |
| 20260507135545 | 13 | 135 | 0.0 | 0.0 | 0.00 | 0.00 | 0.00 | 57 | 1017.3 |
| 20260507135143 | 12 | 270 | 0.0 | 0.0 | 0.00 | 0.00 | 0.00 | 57 | 1017.3 |
| 20260507134742 | 12 | 270 | 0.0 | 0.0 | 0.00 | 0.00 | 0.00 | 57 | 1017.3 |
| 20260507134340 | 11 | 270 | 0.0 | 0.0 | 0.00 | 0.00 | 0.00 | 57 | 1017.3 |
| 20260507133940 | 11 | 274 | 0.0 | 0.0 | 0.00 | 0.00 | 0.00 | 57 | 1017.1 |
| 20260507133538 | 11 | 270 | 0.0 | 0.0 | 0.00 | 0.00 | 0.00 | 58 | 1017.1 |
| 20260507133138 | 10 | 274 | 0.0 | 0.0 | 0.00 | 0.00 | 0.00 | 57 | 1017.1 |